シェパード-ソーレン彗星

447P/Sheppard-Tholen (2009)

English version
Home page
Updated on October 9, 2022

---------------------------------------------------------------------

・ プロフィール

・ 軌道要素

Epoch 2009 Jan. 9.0 TT = JDT 2454840.5                                          
T 2009 Jan. 3.56300 TT                                  Rudenko                 
q   4.6305675            (2000.0)            P               Q                  
n   0.07311751     Peri.   94.40258     +0.78842590     -0.60548758             
a   5.6639811      Node   302.90027     +0.50060936     +0.73407117             
e   0.1824536      Incl.    7.42394     +0.35745610     +0.30744808             
P  13.5                                                                         
From 46 observations 2007 June 6-2022 Jan. 25, mean residual 0".3.              

・ 光度変化

        m1 = 12.0 + 5 logΔ + 10.0 log r

---------------------------------------------------------------------

軌道要素はM.P.E.C. 2022-O19に掲載されたものです。
光度グラフはComet for Windowsで作成したものです。

---------------------------------------------------------------------

Copyright(C) Seiichi Yoshida (comet@aerith.net). All rights reserved.